VK4BLP-5 Weather Reports


time (UTC)temp
C
wind
direction
speed
KPH
gust
KPH
rain 1hr
cm
rain 24hr
cm
rain mn
cm
humidity
%
barometer
mb
20260505110505 21 125 0.0 3.2 0.00 0.00 0.00 94 1019.1
20260505100504 21 0 0.0 0.0 0.00 0.00 0.00 91 1018.7
20260505100005 21 0 0.0 0.0 0.00 0.00 0.00 91 1019.0
20260505094004 21 115 0.0 0.0 0.00 0.00 0.00 91 1018.6
20260505093004 21 115 0.0 0.0 0.00 0.00 0.00 91 1018.8
20260505092505 22 0 0.0 0.0 0.00 0.00 0.00 89 1018.7
20260505091505 22 0 0.0 0.0 0.00 0.00 0.00 89 1018.7
20260505090504 22 0 0.0 0.0 0.00 0.00 0.00 89 1018.6
20260505090004 22 0 0.0 0.0 0.00 0.00 0.00 89 1018.7
20260505085504 22 0 0.0 0.0 0.00 0.00 0.00 89 1018.7
20260505084504 22 0 0.0 3.2 0.00 0.00 0.00 89 1018.6
20260505083504 22 75 3.2 4.8 0.00 0.00 0.00 89 1018.2
20260505082504 22 19 1.6 4.8 0.00 0.00 0.00 88 1018.1
20260505081505 22 103 1.6 4.8 0.00 0.00 0.00 87 1017.9
20260505081004 22 115 3.2 4.8 0.00 0.00 0.00 87 1018.0
20260505080005 22 127 3.2 4.8 0.00 0.00 0.00 87 1018.0
20260505075506 22 98 1.6 3.2 0.00 0.00 0.00 87 1018.1
20260505074504 22 102 3.2 3.2 0.00 0.00 0.00 86 1018.1
20260505073505 22 89 1.6 4.8 0.00 0.00 0.00 85 1017.9
20260505073004 22 124 1.6 4.8 0.00 0.00 0.00 85 1017.7
20260505071504 23 107 1.6 8.0 0.00 0.00 0.00 83 1017.7
20260505070505 23 111 3.2 4.8 0.00 0.00 0.00 78 1017.8
20260505070006 25 0 0.0 0.0 0.00 0.00 0.00 77 1017.9
20260505065504 25 0 0.0 0.0 0.00 0.00 0.00 77 1017.9
20260505064004 25 0 0.0 0.0 0.00 0.00 0.00 77 1017.9
20260505063504 25 0 0.0 0.0 0.00 0.00 0.00 77 1017.8
20260505063004 25 0 0.0 0.0 0.00 0.00 0.00 77 1017.8
20260505062004 25 0 0.0 9.7 0.00 0.00 0.00 77 1017.4
20260505061504 25 1 0.0 9.7 0.00 0.00 0.00 77 1017.6
20260505061005 25 79 9.7 11.3 0.00 0.00 0.00 77 1017.5
20260505060505 25 79 9.7 11.3 0.00 0.00 0.00 77 1017.4
20260505055504 25 105 4.8 14.5 0.00 0.00 0.00 76 1017.4
20260505055004 26 107 8.0 14.5 0.00 0.00 0.00 72 1017.5
20260505054504 26 81 3.2 14.5 0.00 0.00 0.00 72 1017.4
20260505053504 26 93 3.2 11.3 0.00 0.00 0.00 71 1017.2
20260505053004 26 161 1.6 11.3 0.00 0.00 0.00 70 1017.2
20260505052004 26 89 3.2 8.0 0.00 0.00 0.00 66 1017.2
20260505051505 26 136 3.2 4.8 0.00 0.00 0.00 66 1017.2
20260505050504 27 119 3.2 8.0 0.00 0.00 0.00 67 1017.2
20260505033504 26 121 1.6 3.2 0.00 0.00 0.00 69 1016.6
20260505032505 26 32 1.6 4.8 0.00 0.00 0.00 68 1016.9
20260505032005 26 27 3.2 4.8 0.00 0.00 0.00 68 1016.9
20260505031006 26 13 1.6 4.8 0.00 0.00 0.00 69 1016.8
20260505030505 26 203 0.0 4.8 0.00 0.00 0.00 70 1016.8
20260505030004 26 104 3.2 4.8 0.00 0.00 0.00 70 1017.0
20260505025004 26 86 1.6 8.0 0.00 0.00 0.00 69 1017.2
20260505024005 26 17 3.2 4.8 0.00 0.00 0.00 70 1017.3
20260505023004 26 79 3.2 4.8 0.00 0.00 0.00 70 1017.4
20260505022505 26 98 3.2 4.8 0.00 0.00 0.00 68 1017.5
20260505021504 26 275 3.2 4.8 0.00 0.00 0.00 68 1017.6
20260505015505 26 334 3.2 8.0 0.00 0.00 0.00 67 1018.1
20260505015005 26 50 3.2 8.0 0.00 0.00 0.00 69 1018.1
20260505014004 26 355 1.6 8.0 0.00 0.00 0.00 69 1018.2
20260505013004 26 293 4.8 4.8 0.00 0.00 0.00 68 1018.3
20260505012504 26 342 3.2 8.0 0.00 0.00 0.00 69 1018.5
20260505012004 26 331 4.8 8.0 0.00 0.00 0.00 68 1018.7
20260505011004 26 39 3.2 4.8 0.00 0.00 0.00 71 1018.8
20260505010505 26 287 3.2 4.8 0.00 0.00 0.00 71 1019.0
20260505010005 26 291 3.2 4.8 0.00 0.00 0.00 70 1019.2
20260505004003 26 227 3.2 4.8 0.00 0.00 0.00 73 1019.2
20260505003503 25 73 1.6 4.8 0.00 0.00 0.00 73 1019.3
20260505003003 25 102 3.2 4.8 0.00 0.00 0.00 74 1019.4
20260505002503 25 184 1.6 4.8 0.00 0.00 0.00 74 1019.4
20260505001003 25 202 1.6 4.8 0.00 0.00 0.00 76 1019.7
20260505000003 25 298 1.6 4.8 0.00 0.00 0.00 76 1019.7
20260504235504 25 266 3.2 4.8 0.00 0.00 0.00 78 1019.7
20260504235003 25 326 4.8 4.8 0.00 0.00 0.00 76 1019.7
20260504234004 25 9 1.6 3.2 0.00 0.00 0.00 77 1019.8
20260504233503 25 325 1.6 4.8 0.00 0.00 0.00 79 1019.8
20260504233003 24 117 1.6 4.8 0.00 0.00 0.00 80 1019.8
20260504231505 23 318 3.2 4.8 0.00 0.00 0.00 80 1019.9
20260504230504 24 341 0.0 4.8 0.00 0.00 0.00 81 1019.9
20260504230005 24 262 1.6 3.2 0.00 0.00 0.00 82 1020.1
20260504225503 23 219 0.0 3.2 0.00 0.00 0.00 82 1020.0
20260504224503 23 332 0.0 3.2 0.00 0.00 0.00 84 1020.2
20260504223503 22 191 0.0 3.2 0.00 0.00 0.00 86 1020.1
20260504222503 22 268 1.6 3.2 0.00 0.00 0.00 87 1020.1
20260504222003 22 305 0.0 3.2 0.00 0.00 0.00 89 1020.1
20260504221003 21 256 0.0 3.2 0.00 0.00 0.00 90 1020.1
20260504220503 21 276 0.0 3.2 0.00 0.00 0.00 92 1020.0
20260504220003 20 268 0.0 3.2 0.00 0.00 0.00 93 1020.0
20260504215504 20 355 0.0 3.2 0.00 0.00 0.00 93 1019.9
20260504214503 20 263 0.0 3.2 0.00 0.00 0.00 94 1019.9
20260504214004 19 263 0.0 3.2 0.00 0.00 0.00 96 1019.9
20260504213503 18 263 0.0 1.6 0.00 0.00 0.00 98 1019.9
20260504212503 18 263 0.0 0.0 0.00 0.00 0.00 100 1019.9
20260504212003 17 263 0.0 0.0 0.00 0.00 0.00 100 1020.0
20260504210503 17 263 0.0 0.0 0.00 0.00 0.00 100 1019.9
20260504210004 16 263 0.0 0.0 0.00 0.00 0.00 100 1019.7
20260504205504 16 263 0.0 0.0 0.00 0.00 0.00 100 1019.6
20260504204503 16 263 0.0 0.0 0.00 0.00 0.00 100 1019.5
20260504203503 16 263 0.0 0.0 0.00 0.00 0.00 100 1019.4
20260504202504 16 263 0.0 0.0 0.00 0.00 0.00 100 1019.4
20260504202003 16 263 0.0 0.0 0.00 0.00 0.00 100 1019.4
20260504201504 16 263 0.0 0.0 0.00 0.00 0.00 100 1019.4
20260504200004 16 242 0.0 0.0 0.00 0.00 0.00 100 1019.3
20260504195504 16 242 0.0 0.0 0.00 0.00 0.00 100 1019.1
20260504193504 16 242 0.0 0.0 0.00 0.00 0.00 100 1019.3
20260504193003 16 242 0.0 0.0 0.00 0.00 0.00 100 1019.3
20260504192006 16 242 0.0 0.0 0.00 0.00 0.00 100 1019.0
20260504191503 16 242 0.0 0.0 0.00 0.00 0.00 100 1019.0
20260504190004 16 243 0.0 0.0 0.00 0.00 0.00 100 1019.0
20260504185005 16 243 0.0 0.0 0.00 0.00 0.00 100 1018.9
20260504183504 16 278 0.0 0.0 0.00 0.00 0.00 100 1018.8
20260504183003 16 278 0.0 0.0 0.00 0.00 0.00 100 1018.9
20260504182003 16 278 0.0 0.0 0.00 0.00 0.00 100 1018.8
20260504181503 16 278 0.0 0.0 0.00 0.00 0.00 100 1018.9
20260504180004 16 278 0.0 0.0 0.00 0.00 0.00 100 1018.6
20260504174505 16 278 0.0 0.0 0.00 0.00 0.00 100 1018.5
20260504174003 16 278 0.0 0.0 0.00 0.00 0.00 100 1018.5
20260504173503 17 278 0.0 0.0 0.00 0.00 0.00 100 1018.5
20260504173004 17 278 0.0 0.0 0.00 0.00 0.00 100 1018.6
20260504171503 17 278 0.0 0.0 0.00 0.00 0.00 100 1018.6
20260504151004 20 0 0.0 0.0 0.00 0.00 0.00 94 1019.2
20260504141004 20 0 0.0 0.0 0.00 0.00 0.00 94 1019.6